User: anonymous   Login
Location: Mount Wilson Observatory
(34.2257°N, 118.0571°W)
Time: 03:08:40
(UTC-07:00)
Language:

ATLAS 3B CENTAUR R/B - Orbit

View from above orbital plane
View from above orbital plane
View from above satellite
View from above satellite

Ground track
Ground track

The orbit data is extracted from the following two-line orbital elements,

1 28118U 03057B   14295.94461326  .00098469  00000-0  24010-2 0  8377
2 28118 028.1393 230.6194 3805865 160.0076 308.7889 07.87499199205573
Epoch (UTC): 22 October 2014 22:40:14
Eccentricity: 0.3805865
inclination: 28.1393°
perigee height: 232 km
apogee height: 8355 km
right ascension of ascending node: 230.6194°
argument of perigee: 160.0076°
revolutions per day: 7.87499199
mean anomaly at epoch: 308.7889°
orbit number at epoch: 20557

The dashed part of the orbit path shows where the satellite is in the earth's shadow,  

DLR